Regional Weather Roundup
Issued by NWS

Home | Current Version | Previous Version | Text Only | Print | Product List | Glossary On
Versions: 1 2 3 4 5 6 7 8 9 10 11 12 13 14 15 16 17 18 19 20 21 22 23 24 25 26 27 28 29 30 31 32 33 34 35 36 37 38 39 40 41 42 43 44 45 46 47 48 49 50
000
ASUS45 KCYS 251010
RWRWY

WYOMING REGIONAL WEATHER ROUNDUP
NATIONAL WEATHER SERVICE CHEYENNE WY
300 AM MST SUN FEB 25 2018

NOTE:  "FAIR" INDICATES FEW OR NO CLOUDS BELOW 12,000 FEET
WITH NO SIGNIFICANT WEATHER AND/OR OBSTRUCTIONS TO VISIBILITY.

WYZ001-251100-
YELLOWSTONE NATIONAL PARK

CITY           SKY/WX    TMP DP  RH WIND       PRES   REMARKS
LK YELLOWSTONE   N/A     -7 -12  79 CALM      29.75S
W YELLOWSTONE  NOT AVBL

$$
WYZ002>013-054>058-071-098>099-251100-
NORTHERN WYOMING

CITY           SKY/WX    TMP DP  RH WIND       PRES   REMARKS
JACKSON        FLURRIES  15  10  80 SW8       29.84S WCI   4
CODY           FAIR      23   7  50 W18G28    29.73F WCI   9
GREYBULL       FAIR       3  -1  83 VRB3      29.79F
WORLAND        FAIR      -1  -4  87 SW3       29.78F
SHERIDAN       CLOUDY    17   7  64 SW7       29.73F WCI   8
BUFFALO        MOCLDY    21   5  50 NW9       29.70S WCI  11
GILLETTE       MOCLDY    15   5  64 W13       29.72R WCI   1
HULETT         CLOUDY    19   5  53 MISG      29.72S
NEWCASTLE      FAIR       1  -4  78 NE5       29.76R WCI  -8

$$
WYZ014>020-022>026-101>103-251100-
CENTRAL WYOMING

CITY           SKY/WX    TMP DP  RH WIND       PRES   REMARKS
BIG PINEY      FAIR      -7 -11  83 NE5       29.84S WCI -18
PINEDALE       FAIR      -6  -9  84 CALM      29.84F
DUBOIS           N/A    N/A N/A N/A MISG        N/A
LANDER         FAIR      13  -2  51 NW6       29.77F WCI   4
RIVERTON       FAIR      11  -2  56 SW13      29.77F WCI  -4
CASPER         CLOUDY    18   9  68 SW17      29.77F WCI   3
DOUGLAS        FAIR      22  10  60 W26       29.72F WCI   5

$$
WYZ021-027>030-104>119-251100-
SOUTHERN WYOMING

CITY           SKY/WX    TMP DP  RH WIND       PRES   REMARKS
EVANSTON       FAIR      10   7  87 SW12      29.90R WCI  -5
FORT BRIDGER   FLURRIES  14  10  83 SW15      29.90S WCI  -1
ROCK SPRINGS   MOCLDY    12   6  77 SW16      29.86S WCI  -5
DIXON          CLOUDY    17  12  80 SW9       29.91R WCI   6
RAWLINS        FAIR      13   7  77 W23       29.80S WCI  -6
SARATOGA       FAIR      14   9  79 SW16G22   29.81F WCI  -2
LARAMIE        FAIR      10   2  69 W7        29.74F WCI  -1
CHEYENNE       FAIR      18   4  54 W18       29.75F WCI   2
TORRINGTON     FAIR      23  11  60 W9        29.79S WCI  13
PINE BLUFFS    FAIR      18   5  57 SW7       29.80F WCI   8

$$



USA.gov is the U.S. government's official web portal to all federal, state and local government web resources and services.